Back to catalog

THOR ABLESTAR DEB

AlivePO
NORAD 2432·DEBRIS·🇺🇸 United States

Launched Dec 5, 1963 from Vandenberg Space Force Base

Loading…

Next Passes (next 24 hours)

TLE

FreshSource: Space-Track

Epoch: Sep 14, 2026, 11:14 UTC

1 02432U 63049G   26257.46859605  .00000055  00000-0  72919-4 0  9990
2 02432  89.9180  69.9283 0033624 340.6929  47.4723 13.48269848 84738

Track THOR ABLESTAR DEB in real time with AllMySat

Download on the App Store